This demonstration page uses our WeatherBlox Daily Observations layout. Learn more.

Left ArrowRight Arrow

34.16533, -84.80231

Hourly Observations for November 13, 2020

Temp ( °F °C ) Dew Point ( °F °C ) Humidity (%) Winds ( mph kmh ) Pressure ( in mb ) Visibility ( mi km ) Precip ( " mm )
12:53 am 00:53 Clear 58 14.4 55 12.8 90 90 Calm 30.00 1016 10 16 0.00 0.00
1:53 am 01:53 Clear 56 13.3 54 12.2 93 93 Calm 30.02 1017 7 11 0.00 0.00
2:53 am 02:53 Clear with Mist and Fog 55 12.8 52 11.1 90 90 Calm 30.03 1017 4 6 0.00 0.00
2:57 am 02:57 Mostly Clear with Mist and Fog 55 12.8 52 11.1 90 90 Calm 30.06 1018 1 2 0.00 0.00
3:01 am 03:01 Mostly Cloudy with Mist and Fog 54 12.2 52 11.1 93 93 Calm 30.06 1018 1 1 0.00 0.00
3:12 am 03:12 Mostly Cloudy with Fog 54 12.2 52 11.1 93 93 Calm 30.06 1018 1 1 0.00 0.00
3:18 am 03:18 Mostly Cloudy with Mist and Fog 54 12.2 52 11.1 93 93 Calm 30.06 1018 2 3 0.00 0.00
3:26 am 03:26 Mostly Cloudy with Mist and Fog 54 12.2 52 11.1 93 93 Calm 30.06 1018 3 5 0.00 0.00
3:33 am 03:33 Partly Cloudy with Mist and Fog 54 12.2 52 11.1 93 93 Calm 30.06 1018 6 10 0.00 0.00
3:53 am 03:53 Partly Cloudy 54 12.2 51 10.6 90 90 Calm 30.04 1017 7 11 0.00 0.00
4:01 am 04:01 Mostly Cloudy with Mist and Fog 54 12.2 51 10.6 90 90 Calm 30.06 1018 5 8 0.00 0.00
4:34 am 04:34 Cloudy with Mist and Fog 56 13.3 54 12.2 93 93 Calm 30.07 1018 2 3 0.00 0.00
4:53 am 04:53 Mostly Cloudy with Mist and Fog 57 13.9 55 12.8 93 93 Calm 30.05 1018 1 1 0.00 0.00
5:53 am 05:53 Mostly Cloudy with Fog 56 13.3 54 12.2 93 93 Calm 30.06 1018 1 1 0.00 0.00
6:53 am 06:53 Mostly Cloudy with Fog 54 12.2 53 11.7 97 97 Calm 30.09 1019 1 1 0.00 0.00
7:53 am 07:53 Mostly Cloudy with Mist and Fog 55 12.8 53 11.7 93 93 Calm 30.12 1020 1 1 0.00 0.00
8:16 am 08:16 Cloudy with Mist and Fog 55 12.8 53 11.7 93 93 Calm 30.15 1021 2 2 0.00 0.00
8:53 am 08:53 Cloudy with Mist and Fog 56 13.3 54 12.2 93 93 Calm 30.14 1021 3 5 0.00 0.00
9:53 am 09:53 Cloudy with Mist and Fog 58 14.4 54 12.2 87 87 Calm 30.15 1021 6 10 0.00 0.00
10:18 am 10:18 Partly Cloudy 60 15.6 53 11.7 78 78 Calm 30.16 1021 10 16 0.00 0.00
10:53 am 10:53 Sunny 63 17.2 52 11.1 68 68 VRB 3 6 30.14 1021 10 16 0.00 0.00
11:53 am 11:53 Sunny 68 20 47 8.3 47 47 N 8 13 30.13 1020 10 16 0.00 0.00
12:53 pm 12:53 Sunny 70 21.1 41 5 35 35 VRB 5 7 30.10 1019 10 16 0.00 0.00
1:53 pm 13:53 Sunny 72 22.2 43 6.1 35 35 VRB 5 7 30.09 1019 10 16 0.00 0.00
2:53 pm 14:53 Sunny 72 22.2 44 6.7 37 37 VRB 3 6 30.07 1018 10 16 0.00 0.00
3:53 pm 15:53 Sunny 73 22.8 45 7.2 37 37 undefined N/A 30.07 1018 10 16 0.00 0.00
4:53 pm 16:53 Sunny 69 20.6 45 7.2 42 42 Calm 30.08 1019 10 16 0.00 0.00
5:53 pm 17:53 Clear 62 16.7 49 9.4 62 62 Calm 30.09 1019 10 16 0.00 0.00
6:53 pm 18:53 Clear 58 14.4 48 8.9 70 70 Calm 30.11 1020 10 16 0.00 0.00
7:53 pm 19:53 Clear 56 13.3 48 8.9 75 75 SW 3 6 30.12 1020 10 16 0.00 0.00
8:53 pm 20:53 Clear 52 11.1 46 7.8 80 80 Calm 30.14 1021 10 16 0.00 0.00
9:53 pm 21:53 Clear 49 9.4 45 7.2 86 86 Calm 30.15 1021 10 16 0.00 0.00
10:53 pm 22:53 Clear 49 9.4 44 6.7 83 83 Calm 30.14 1021 10 16 0.00 0.00
11:53 pm 23:53 Clear 47 8.3 43 6.1 86 86 Calm 30.13 1020 10 16 0.00 0.00

Powered by AerisWeather